Weather History for CWEU - January, 2013

Change the Weather History Date:

Thursday, January 3, 2013

  Actual Average Record
Temperature  
Mean Temperature -36 °F -  
Max Temperature -33 °F -28 °F 6 °F (2009)
Min Temperature -40 °F -41 °F -48 °F (2014)
Degree Days  
Heating Degree Days 102    
Moisture  
Dew Point -45 °F    
Average Humidity 65    
Maximum Humidity 74    
Minimum Humidity 45    
Precipitation  
Precipitation 0.00 in 0.00 in - ()
Sea Level Pressure  
Sea Level Pressure 29.87 in    
Wind  
Wind Speed 1 mph ()    
Max Wind Speed 4 mph    
Max Gust Speed -    
Visibility 15.0 miles    
Events Snow    
Averages and records for this station are not official NWS values.
T = Trace of Precipitation, MM = Missing Value Source: Averaged Metar Reports

Daily Weather History Graph

Daily Weather History Graph

Search for Another Location

Airport or City:

Trip Planner

Search our weather history database for the weather conditions in past years. The results will help you decide how hot, cold, wet, or windy it might be!

Date:

Astronomy

Dec. 31, 1969 Rise Set
Actual Time Sun does not set Sun does not set
Civil Twilight Sun does not set Sun does not set
Nautical Twilight 11:15 AM CST 12:20 PM CST
Astronomical Twilight 7:35 AM CST 4:02 PM CST
Moon No Moon Rise 9:34 AM CST (1/3)
Length of Visible Light 0h 00m
Length of Day
0h 00m
Waning Gibbous, 65% of the Moon is Illuminated
Jan 3
Waning Gibbous
Jan 4
Last Quarter
Jan 11
New
Jan 18
First Quarter
Jan 26
Full

Hourly Weather History & Observations

Time (CST) Temp. Windchill Dew Point Humidity Pressure Visibility Wind Dir Wind Speed Gust Speed Precip Events Conditions
12:00 AM -35 °F - -43 °F 45% 29.79 in 15 mi ESE 3.5 mph - - Snow Snow
12:00 AM -34.6 °F -47.4 °F -43.6 °F 61% 29.79 in 15.0 mi ESE 3.5 mph - N/A   Clear
1:00 AM -34.6 °F - -43.6 °F 61% 29.80 in 15.0 mi Calm Calm - N/A   Clear
2:00 AM -32.8 °F - -40.0 °F 68% 29.82 in 15.0 mi ESE 2.3 mph - N/A   Clear
3:00 AM -34.6 °F - -41.8 °F 68% 29.83 in 15.0 mi ESE 2.3 mph - N/A   Clear
4:00 AM -38.2 °F - -45.4 °F 67% 29.84 in 15.0 mi Calm Calm - N/A   Clear
5:00 AM -38.2 °F - -45.4 °F 67% 29.85 in 15.0 mi Calm Calm - N/A   Clear
6:00 AM -34 °F - -42 °F 45% 29.85 in 15 mi SE 2.3 mph - - Snow Snow
6:00 AM -34.6 °F - -41.8 °F 68% 29.85 in 15.0 mi ESE 2.3 mph - N/A   Clear
7:00 AM -38.2 °F - -45.4 °F 67% 29.86 in 15.0 mi Calm Calm - N/A   Clear
8:00 AM -38.2 °F - -45.4 °F 67% 29.87 in 15.0 mi Calm Calm - N/A   Clear
9:00 AM -40.0 °F - -45.4 °F 74% 29.87 in 15.0 mi Calm Calm - N/A   Clear
10:00 AM -40.0 °F - -47.2 °F 67% 29.88 in 15.0 mi Calm Calm - N/A   Clear
11:00 AM -40.0 °F - -47.2 °F 67% 29.89 in 15.0 mi SE 2.3 mph - N/A   Clear
12:00 PM -41 °F - -48 °F 49% 29.89 in 15 mi Calm Calm - - Snow Snow
12:00 PM -40.0 °F - -47.2 °F 67% 29.89 in 15.0 mi Calm Calm - N/A   Clear
1:00 PM -40.0 °F - -47.2 °F 67% 29.89 in 15.0 mi Calm Calm - N/A   Clear
2:00 PM -40.0 °F - -45.4 °F 74% 29.90 in 15.0 mi Calm Calm - N/A   Clear
3:00 PM -40.0 °F - -45.4 °F 74% 29.90 in 15.0 mi Calm Calm - N/A   Clear
4:00 PM -38.2 °F - -45.4 °F 67% 29.91 in 15.0 mi Calm Calm - N/A   Clear
5:00 PM -40.0 °F - -47.2 °F 67% 29.91 in 15.0 mi Calm Calm - N/A   Clear
6:00 PM -39 °F - -45 °F 54% 29.90 in 15 mi Calm Calm - - Snow Snow
6:00 PM -38.2 °F - -45.4 °F 67% 29.90 in 15.0 mi Calm Calm - N/A   Clear
7:00 PM -36.4 °F - -43.6 °F 67% 29.91 in 15.0 mi Calm Calm - N/A   Clear
8:00 PM -36.4 °F - -43.6 °F 67% 29.89 in 15.0 mi Calm Calm - N/A   Clear
9:00 PM -36.4 °F - -43.6 °F 67% 29.88 in 15.0 mi Calm Calm - N/A   Clear